DECAYED

STARLINK-1463, 45771 (Decayed)

Orbit data source: Space-Track

STARLINK-1463, 45771 was a payload satellite owned by SpaceX/Seattle (US) in LEO that was launched on Sat, 13 Jun 2020 UTC via an FALCON 9 launch vehicle from the Air Force Eastern Test Range (AFETR). Payload-class satellites include a variety of spacecraft equipped with specific instruments for various scientific and technological missions. These include communications satellites like Starlink; space stations such as the ISS; scientific satellites like the Hubble; Earth observation satellites from companies like Planet Labs, Umbra, and HawkEye 360; GPS; miniature CubeSats for education and research; and military/defense satellites.

Not visible in the next 10 days
Identifier
45771, 2020-038AT
Orbit
Decayed
Country
Flag of USUS
Related business
Manufacturer
SpaceX/Seattle
Mission
Decayed Commercial Communications
Bus & Motor
STARLINK, Unknown motor
Mass
260 kg wet, ~248 kg dry
Launch date (UTC)
2020-06-13 (5 years ago)
Launch vehicle
FALCON 9
Launch site
Air Force Eastern Test Range (AFETR)
Object type
Payload
Rocket body
Debris
Shape & HBR
Box + 1 Pan, 10.1 m
Radar Cross Section
13.562 m², Large (>1 m²)

Expand to show TLE details & history
Last TLE update: 7 months ago

TLE from 7 months ago
0 STARLINK-1463
1 45771U 20038AT  25081.02975487  .31958170  12654-4  39471-3 0  9998
2 45771  53.0190 282.8071 0008084 285.3179 203.0158 16.49182084265507
Epoch: 2025-03-22T00:42Z
TLE epoch observation values (Epoch: 2025-03-22T00:42:50.820Z)
Latitude
38.9562°
Longitude
-124.93794°
Altitude
149.677 km
Speed
7.819 km/s
True Right ascension
04h 22m 13s
True Declination
38° 46' 21"
Sunlit
Object was in daylight at epoch
Visualization orbit readout
Latitude
Unknown
Longitude
Unknown
Altitude
Unknown
Speed
Unknown
Apparent Right ascension
Unknown
Apparent Declination
Unknown
Sunlit
N/A
Visualization observer readout
Local Sidereal Time
09:13:00
Azimuth
Unknown
Elevation
Unknown
Doppler factor
Unknown
Orbital elements
Apogee altitude
147.054 km
Perigee altitude
136.513 km
Semi-major axis
6,519.92 km
Eccentricity
0.00081
Inclination
53.019°
RAAN
282.8071°
Arg. of periapsis
285.3179°
True anomaly
202.97961°
Mean anomaly
203.0158°
Eccentric anomaly
202.9977°
Mean motion
4.12268 °/min
Orbital period
87.32 mins
BSTAR
0.00039471
Loading maneuver chart data...
Computing Atmospheric mass density...

Documentation

Showing up to 5 results
|